fecha-hora | temperatura | viento dirección-velocidad-rachas | humedad | presión

  • 11-04-2019 21:00:00 | 15.90°C | Noroeste-8.00 km/h - 32.00 km/h | 42.00% | 1013.60 hPa
  • 11-04-2019 20:00:00 | 16.20°C | Oeste-22.00 km/h - 32.00 km/h | 60.00% | 1012.70 hPa
  • 11-04-2019 19:00:00 | 19.50°C | Oeste-13.00 km/h - 28.00 km/h | 27.00% | 1012.50 hPa
  • 11-04-2019 18:00:00 | 19.30°C | Noroeste-18.00 km/h - 35.00 km/h | 31.00% | 1012.40 hPa
  • 11-04-2019 17:00:00 | 19.80°C | Noroeste-22.00 km/h - 37.00 km/h | 31.00% | 1012.30 hPa
  • 11-04-2019 16:00:00 | 20.00°C | Noroeste-19.00 km/h - 32.00 km/h | 36.00% | 1012.30 hPa
  • 11-04-2019 15:00:00 | 19.90°C | Noroeste-22.00 km/h - 35.00 km/h | 41.00% | 1012.50 hPa
  • 11-04-2019 14:00:00 | 20.70°C | Norte-19.00 km/h - 32.00 km/h | 36.00% | 1012.50 hPa
  • 11-04-2019 13:00:00 | 19.80°C | Noroeste-18.00 km/h - 33.00 km/h | 38.00% | 1012.80 hPa
  • 11-04-2019 12:00:00 | 19.00°C | Sudoeste-15.00 km/h - 26.00 km/h | 49.00% | 1013.30 hPa
  • 11-04-2019 11:00:00 | 18.30°C | Noroeste-14.00 km/h - 24.00 km/h | 51.00% | 1013.00 hPa
  • 11-04-2019 10:00:00 | 15.90°C | Noroeste-10.00 km/h - 17.00 km/h | 66.00% | 1012.80 hPa
  • 11-04-2019 09:00:00 | 11.10°C | Este-7.00 km/h - 11.00 km/h | 79.00% | 1012.60 hPa
  • 11-04-2019 08:00:00 | 9.50°C | Este-4.00 km/h - 11.00 km/h | 84.00% | 1012.10 hPa
  • 11-04-2019 07:00:00 | 8.80°C | Nordeste-3.00 km/h - 15.00 km/h | 86.00% | 1011.50 hPa
  • 11-04-2019 06:00:00 | 8.30°C | Este-5.00 km/h - 9.00 km/h | 85.00% | 1011.50 hPa
  • 11-04-2019 05:00:00 | 8.40°C | Nordeste-8.00 km/h - 11.00 km/h | 86.00% | 1011.50 hPa
  • 11-04-2019 04:00:00 | 9.20°C | Este-5.00 km/h - 9.00 km/h | 85.00% | 1011.50 hPa
  • 11-04-2019 03:00:00 | 9.40°C | Este-7.00 km/h - 11.00 km/h | 84.00% | 1011.80 hPa
  • 11-04-2019 02:00:00 | 11.00°C | Oeste-5.00 km/h - 9.00 km/h | 76.00% | 1012.20 hPa
  • 11-04-2019 01:00:00 | 10.70°C | Calma-0.00 km/h - 11.00 km/h | 81.00% | 1012.20 hPa
  • 11-04-2019 00:00:00 | 11.60°C | Norte-9.00 km/h - 11.00 km/h | 66.00% | 1012.00 hPa
  • 10-04-2019 23:00:00 | 12.60°C | Noroeste-3.00 km/h - 11.00 km/h | 62.00% | 1012.10 hPa
  • 10-04-2019 22:00:00 | 13.20°C | Sudoeste-6.00 km/h - 18.00 km/h | 66.00% | 1012.00 hPa
    • diseño web asturias Información sobre el estado de las mareas, altura de la marejada, temperatura del agua y otros datos de Gijón en Asturias.

      Surf Gijón